Location: Unspecified
(0.0000°N, 0.0000°E)
Time: 08:53:23
(UTC+00:00)

Transit 4B - Pass Details

Date: 18 August 2024
Orbit: 947 x 1097 km, 32.4° (Epoch: 07 September)

Event Time Altitude Azimuth Distance (km) Brightness Sun altitude
Rises 20:35:09 0° 310° (NW) 3,633 12.3 -36.8°
Reaches altitude 10° 20:37:49 10° 313° (NW) 2,674 11.4 -37.4°
Enters shadow 20:41:08 32° 322° (NW) 1,567 9.8 -38.2°
